EWG1WB EDDK-LPFR

Flight info

Callsign EWG1WB
Flight time 2h 44m
Altitude 35000
Route NVO3B/31R NVO Y868 NAVAK Z283 LNO DCT RASCA DCT FAMEN DCT AHVEC DCT RESMI UN857 DISAK DCT ARKIP DCT ARNAV DCT LMG DCT UVELI DCT OSMOB DCT VAVIX DCT BTZ DCT URUNA P181 NEA L14 ADINO DCT RAKOD DCT ELVAR DCT ALAGU
Aircraft A320/M-SDE2E3FGIJ1RWXYZ/HB1

Departure

Time 2026-04-20 15:29
Airport Cologne Bonn Airport (EDDK)

Arrival

Time 2026-04-20 18:14
Airport Faro - Gago Coutinho International Airport (LPFR)
Time Latitude Longitude Altitude Speed Heading
2026-04-20 14:43 50.87656 7.12231 232 ft 0 kts 52°
2026-04-20 15:15 50.87646 7.12210 234 ft 4 kts 52°
2026-04-20 15:15 50.87630 7.12176 235 ft 4 kts 60°
2026-04-20 15:16 50.87621 7.12138 235 ft 4 kts 93°
2026-04-20 15:16 50.87625 7.12111 232 ft 0 kts 117°
2026-04-20 15:19 50.87616 7.12137 235 ft 6 kts 117°
2026-04-20 15:19 50.87591 7.12216 232 ft 10 kts 117°
2026-04-20 15:20 50.87561 7.12305 232 ft 9 kts 117°
2026-04-20 15:20 50.87541 7.12385 233 ft 7 kts 92°
2026-04-20 15:20 50.87576 7.12450 232 ft 10 kts 22°
2026-04-20 15:20 50.87653 7.12491 232 ft 13 kts 18°
2026-04-20 15:21 50.87743 7.12544 233 ft 14 kts 36°
2026-04-20 15:21 50.87764 7.12692 232 ft 14 kts 109°
2026-04-20 15:21 50.87703 7.12795 232 ft 12 kts 137°
2026-04-20 15:21 50.87640 7.12885 232 ft 14 kts 137°
2026-04-20 15:22 50.87561 7.13000 232 ft 17 kts 137°
2026-04-20 15:22 50.87462 7.13143 232 ft 20 kts 137°
2026-04-20 15:22 50.87364 7.13285 232 ft 18 kts 137°
2026-04-20 15:22 50.87266 7.13427 234 ft 21 kts 137°
2026-04-20 15:23 50.87156 7.13586 238 ft 21 kts 137°
2026-04-20 15:23 50.87057 7.13730 241 ft 17 kts 137°
2026-04-20 15:23 50.86977 7.13844 245 ft 13 kts 137°
2026-04-20 15:23 50.86916 7.13934 251 ft 11 kts 137°
2026-04-20 15:24 50.86862 7.14012 255 ft 10 kts 137°
2026-04-20 15:24 50.86801 7.14100 255 ft 14 kts 141°
2026-04-20 15:24 50.86706 7.14177 258 ft 16 kts 140°
2026-04-20 15:24 50.86611 7.14316 261 ft 21 kts 137°
2026-04-20 15:25 50.86492 7.14488 267 ft 23 kts 137°
2026-04-20 15:25 50.86388 7.14639 273 ft 18 kts 137°
2026-04-20 15:25 50.86307 7.14757 277 ft 16 kts 137°
2026-04-20 15:25 50.86222 7.14879 282 ft 17 kts 137°
2026-04-20 15:26 50.86127 7.15016 286 ft 20 kts 137°
2026-04-20 15:26 50.86018 7.15175 293 ft 23 kts 137°
2026-04-20 15:26 50.85895 7.15352 296 ft 25 kts 137°
2026-04-20 15:26 50.85767 7.15538 299 ft 25 kts 137°
2026-04-20 15:27 50.85644 7.15716 303 ft 23 kts 137°
2026-04-20 15:27 50.85529 7.15881 307 ft 21 kts 137°
2026-04-20 15:27 50.85430 7.16026 308 ft 19 kts 137°
2026-04-20 15:27 50.85351 7.16171 309 ft 17 kts 112°
2026-04-20 15:28 50.85341 7.16341 309 ft 15 kts 79°
2026-04-20 15:28 50.85396 7.16465 308 ft 14 kts 38°
2026-04-20 15:28 50.85495 7.16519 307 ft 16 kts
2026-04-20 15:28 50.85598 7.16456 309 ft 17 kts 317°
2026-04-20 15:29 50.85761 7.16222 307 ft 61 kts 317°
2026-04-20 15:29 50.86240 7.15527 294 ft 123 kts 317°
2026-04-20 15:29 50.86993 7.14434 324 ft 165 kts 319°
2026-04-20 15:29 50.87837 7.13204 1002 ft 167 kts 317°
2026-04-20 15:30 50.88707 7.11945 1730 ft 175 kts 319°
2026-04-20 15:30 50.89651 7.10590 2187 ft 187 kts 319°
2026-04-20 15:30 50.90612 7.09173 2833 ft 190 kts 312°
2026-04-20 15:30 50.91205 7.07271 3421 ft 200 kts 283°
2026-04-20 15:31 50.91123 7.04970 3726 ft 226 kts 254°
2026-04-20 15:31 50.90537 7.02480 3989 ft 253 kts 252°
2026-04-20 15:31 50.89943 6.99811 4581 ft 263 kts 252°
2026-04-20 15:31 50.89337 6.97041 5438 ft 269 kts 253°
2026-04-20 15:32 50.88727 6.94211 6319 ft 273 kts 254°
2026-04-20 15:32 50.88125 6.91352 7213 ft 275 kts 254°
2026-04-20 15:32 50.87523 6.88468 8151 ft 276 kts 254°
2026-04-20 15:32 50.86912 6.85545 8979 ft 282 kts 253°
2026-04-20 15:33 50.86277 6.82557 9726 ft 289 kts 252°
2026-04-20 15:33 50.85629 6.79541 10542 ft 293 kts 253°
2026-04-20 15:33 50.84960 6.76396 10963 ft 310 kts 253°
2026-04-20 15:33 50.84255 6.73039 11239 ft 332 kts 253°
2026-04-20 15:34 50.83512 6.69468 11549 ft 350 kts 253°
2026-04-20 15:34 50.82760 6.65760 12109 ft 357 kts 257°
2026-04-20 15:34 50.82359 6.61869 12789 ft 360 kts 268°
2026-04-20 15:34 50.82354 6.57905 13563 ft 361 kts 272°
2026-04-20 15:35 50.82397 6.53942 14355 ft 359 kts 272°
2026-04-20 15:35 50.82444 6.49981 15024 ft 362 kts 272°
2026-04-20 15:35 50.82494 6.45978 15645 ft 366 kts 272°
2026-04-20 15:35 50.82546 6.41926 16269 ft 370 kts 272°
2026-04-20 15:36 50.82595 6.37835 16895 ft 372 kts 272°
2026-04-20 15:36 50.82640 6.33780 17490 ft 375 kts 272°
2026-04-20 15:36 50.82683 6.29635 18085 ft 378 kts 272°
2026-04-20 15:36 50.82725 6.25449 18636 ft 382 kts 272°
2026-04-20 15:37 50.82768 6.21221 19127 ft 385 kts 272°
2026-04-20 15:37 50.82812 6.16966 19616 ft 388 kts 272°
2026-04-20 15:37 50.82855 6.12686 20116 ft 391 kts 272°
2026-04-20 15:37 50.82878 6.08373 20626 ft 393 kts 269°
2026-04-20 15:38 50.82337 6.04126 21071 ft 400 kts 248°
2026-04-20 15:38 50.80769 6.00490 21506 ft 406 kts 224°
2026-04-20 15:38 50.78492 5.97805 21942 ft 411 kts 216°
2026-04-20 15:38 50.76289 5.94995 22391 ft 412 kts 224°
2026-04-20 15:39 50.74293 5.91732 22857 ft 414 kts 229°
2026-04-20 15:39 50.72376 5.88327 23319 ft 416 kts 231°
2026-04-20 15:39 50.70472 5.84859 23835 ft 416 kts 232°
2026-04-20 15:39 50.69222 5.82565 24097 ft 417 kts 232°
2026-04-20 15:40 50.67325 5.79088 24497 ft 418 kts 232°
2026-04-20 15:40 50.65417 5.75616 24886 ft 420 kts 232°
2026-04-20 15:40 50.63493 5.72147 25271 ft 421 kts 232°
2026-04-20 15:40 50.60921 5.67544 25766 ft 423 kts 232°
2026-04-20 15:41 50.58971 5.64066 26137 ft 425 kts 232°
2026-04-20 15:41 50.57014 5.60577 26509 ft 426 kts 232°
2026-04-20 15:41 50.55685 5.58209 26766 ft 427 kts 232°
2026-04-20 15:41 50.53716 5.54711 27153 ft 427 kts 233°
2026-04-20 15:42 50.51745 5.51213 27494 ft 428 kts 233°
2026-04-20 15:42 50.49774 5.47718 27931 ft 427 kts 234°
2026-04-20 15:42 50.47830 5.44277 28334 ft 426 kts 235°
2026-04-20 15:42 50.45862 5.40794 28676 ft 427 kts 235°
2026-04-20 15:43 50.43883 5.37300 28998 ft 428 kts 235°
2026-04-20 15:43 50.41903 5.33803 29314 ft 430 kts 235°
2026-04-20 15:43 50.39915 5.30290 29708 ft 429 kts 236°
2026-04-20 15:43 50.37939 5.26809 30179 ft 427 kts 236°
2026-04-20 15:44 50.35971 5.23350 30572 ft 425 kts 236°
2026-04-20 15:44 50.34007 5.19906 30912 ft 424 kts 236°
2026-04-20 15:44 50.32036 5.16459 31238 ft 423 kts 235°
2026-04-20 15:44 50.30075 5.13031 31533 ft 422 kts 236°
2026-04-20 15:45 50.28126 5.09632 32002 ft 418 kts 236°
2026-04-20 15:45 50.26189 5.06254 32403 ft 416 kts 236°
2026-04-20 15:45 50.24265 5.02899 32732 ft 415 kts 236°
2026-04-20 15:45 50.22337 4.99539 33051 ft 415 kts 235°
2026-04-20 15:46 50.20414 4.96186 33361 ft 415 kts 235°
2026-04-20 15:46 50.18490 4.92839 33677 ft 414 kts 235°
2026-04-20 15:46 50.16562 4.89490 33982 ft 414 kts 234°
2026-04-20 15:46 50.14663 4.86200 34271 ft 414 kts 234°
2026-04-20 15:47 50.12733 4.82864 34515 ft 415 kts 234°
2026-04-20 15:47 50.10801 4.79522 34744 ft 416 kts 234°
2026-04-20 15:47 50.08856 4.76167 34946 ft 416 kts 234°
2026-04-20 15:47 50.06913 4.72825 35184 ft 417 kts 234°
2026-04-20 15:48 50.04962 4.69475 35397 ft 418 kts 234°
2026-04-20 15:48 50.03011 4.66124 35593 ft 418 kts 234°
2026-04-20 15:48 50.01053 4.62763 35786 ft 419 kts 233°
2026-04-20 15:48 49.99093 4.59401 35976 ft 420 kts 233°
2026-04-20 15:49 49.97127 4.56039 36164 ft 421 kts 233°
2026-04-20 15:49 49.95131 4.52693 36318 ft 423 kts 233°
2026-04-20 15:49 49.93106 4.49373 36474 ft 424 kts 232°
2026-04-20 15:49 49.91061 4.46063 36650 ft 425 kts 232°
2026-04-20 15:50 49.89036 4.42799 36830 ft 426 kts 232°
2026-04-20 15:50 49.86980 4.39486 36963 ft 427 kts 232°
2026-04-20 15:50 49.84921 4.36161 37133 ft 428 kts 232°
2026-04-20 15:51 49.80782 4.29452 37170 ft 432 kts 232°
2026-04-20 15:51 49.76623 4.22719 37169 ft 433 kts 232°
2026-04-20 15:52 49.72460 4.15996 37170 ft 433 kts 232°
2026-04-20 15:52 49.68291 4.09282 37168 ft 433 kts 232°
2026-04-20 15:53 49.62004 3.99207 37151 ft 434 kts 232°
2026-04-20 15:53 49.57799 3.92494 37160 ft 435 kts 232°
2026-04-20 15:54 49.53629 3.85832 37153 ft 435 kts 232°
2026-04-20 15:54 49.49396 3.79094 37158 ft 435 kts 231°
2026-04-20 15:55 49.45211 3.72466 37142 ft 435 kts 232°
2026-04-20 15:55 49.40995 3.65796 37148 ft 435 kts 231°
2026-04-20 15:56 49.36775 3.59147 37167 ft 435 kts 231°
2026-04-20 15:56 49.32552 3.52500 37162 ft 435 kts 231°
2026-04-20 15:57 49.28331 3.45866 37167 ft 434 kts 231°
2026-04-20 15:57 49.24102 3.39248 37151 ft 434 kts 231°
2026-04-20 15:58 49.19876 3.32657 37162 ft 433 kts 231°
2026-04-20 15:58 49.15658 3.26082 37168 ft 433 kts 231°
2026-04-20 15:59 49.11465 3.19560 37171 ft 433 kts 231°
2026-04-20 15:59 49.07238 3.13015 37170 ft 433 kts 231°
2026-04-20 16:00 49.03004 3.06490 37132 ft 433 kts 230°
2026-04-20 16:00 48.98771 2.99978 37153 ft 432 kts 230°
2026-04-20 16:01 48.94544 2.93465 37164 ft 432 kts 230°
2026-04-20 16:01 48.90313 2.86968 37166 ft 432 kts 230°
2026-04-20 16:02 48.86078 2.80495 37175 ft 432 kts 230°
2026-04-20 16:02 48.81939 2.73920 37158 ft 428 kts 237°
2026-04-20 16:03 48.78548 2.66561 37153 ft 425 kts 240°
2026-04-20 16:03 48.75217 2.59233 37143 ft 425 kts 240°
2026-04-20 16:04 48.71859 2.51861 37143 ft 425 kts 240°
2026-04-20 16:04 48.68494 2.44490 37145 ft 425 kts 239°
2026-04-20 16:05 48.65130 2.37139 37146 ft 425 kts 239°
2026-04-20 16:05 48.61752 2.29796 37135 ft 425 kts 239°
2026-04-20 16:06 48.58030 2.22821 37141 ft 433 kts 226°
2026-04-20 16:06 48.55595 2.20105 37142 ft 440 kts 215°
2026-04-20 16:06 48.52817 2.18106 37141 ft 447 kts 204°
2026-04-20 16:07 48.46705 2.15908 37137 ft 453 kts 197°
2026-04-20 16:07 48.40539 2.13928 37102 ft 453 kts 198°
2026-04-20 16:08 48.34367 2.11939 37125 ft 454 kts 198°
2026-04-20 16:08 48.28148 2.10445 37131 ft 461 kts 186°
2026-04-20 16:09 48.21692 2.11390 37131 ft 468 kts 176°
2026-04-20 16:09 48.15238 2.12745 37113 ft 466 kts 181°
2026-04-20 16:10 48.08867 2.12338 37119 ft 455 kts 193°
2026-04-20 16:10 48.02585 2.11102 37123 ft 455 kts 193°
2026-04-20 16:11 47.96300 2.09892 37120 ft 456 kts 193°
2026-04-20 16:11 47.90006 2.08702 37119 ft 456 kts 193°
2026-04-20 16:12 47.83747 2.07511 37123 ft 455 kts 193°
2026-04-20 16:12 47.77461 2.06304 37080 ft 455 kts 193°
2026-04-20 16:13 47.71173 2.05115 37085 ft 455 kts 193°
2026-04-20 16:13 47.64891 2.03895 37080 ft 453 kts 197°
2026-04-20 16:14 47.58989 2.01111 37080 ft 442 kts 208°
2026-04-20 16:14 47.53258 1.97771 37072 ft 443 kts 207°
2026-04-20 16:15 47.47511 1.94462 37076 ft 443 kts 207°
2026-04-20 16:15 47.41809 1.91178 37076 ft 442 kts 207°
2026-04-20 16:16 47.36068 1.87864 37052 ft 442 kts 207°
2026-04-20 16:16 47.30328 1.84552 37055 ft 442 kts 207°
2026-04-20 16:17 47.24587 1.81271 37057 ft 442 kts 207°
2026-04-20 16:17 47.18843 1.78006 37062 ft 442 kts 207°
2026-04-20 16:18 47.13096 1.74751 37046 ft 442 kts 207°
2026-04-20 16:18 47.07382 1.71537 37050 ft 443 kts 206°
2026-04-20 16:19 47.01632 1.68316 37051 ft 442 kts 206°
2026-04-20 16:19 46.95881 1.65091 37047 ft 442 kts 207°
2026-04-20 16:20 46.90139 1.61877 37045 ft 442 kts 207°
2026-04-20 16:20 46.84390 1.58669 37063 ft 442 kts 207°
2026-04-20 16:21 46.78651 1.55474 37061 ft 441 kts 207°
2026-04-20 16:21 46.72911 1.52281 37062 ft 441 kts 206°
2026-04-20 16:22 46.67167 1.49113 37055 ft 441 kts 206°
2026-04-20 16:22 46.61464 1.45962 37046 ft 441 kts 206°
2026-04-20 16:23 46.55730 1.42792 37019 ft 441 kts 207°
2026-04-20 16:23 46.49981 1.39635 37027 ft 441 kts 207°
2026-04-20 16:24 46.44251 1.36491 37029 ft 440 kts 206°
2026-04-20 16:24 46.38516 1.33357 37027 ft 440 kts 206°
2026-04-20 16:25 46.32784 1.30227 37018 ft 440 kts 207°
2026-04-20 16:25 46.27060 1.27095 37014 ft 439 kts 207°
2026-04-20 16:26 46.21374 1.24002 37014 ft 439 kts 207°
2026-04-20 16:26 46.15655 1.20902 36979 ft 439 kts 206°
2026-04-20 16:27 46.09932 1.17805 36981 ft 439 kts 206°
2026-04-20 16:27 46.04201 1.14703 36983 ft 439 kts 206°
2026-04-20 16:28 45.98475 1.11622 36982 ft 439 kts 206°
2026-04-20 16:28 45.92753 1.08548 36968 ft 439 kts 206°
2026-04-20 16:29 45.87067 1.05495 36980 ft 439 kts 206°
2026-04-20 16:29 45.81500 1.02024 36984 ft 430 kts 217°
2026-04-20 16:30 45.76820 0.96837 36970 ft 424 kts 225°
2026-04-20 16:30 45.73064 0.92317 36977 ft 424 kts 225°
2026-04-20 16:31 45.68543 0.86909 36975 ft 424 kts 225°
2026-04-20 16:31 45.63269 0.80639 36977 ft 424 kts 225°
2026-04-20 16:32 45.59473 0.76131 36960 ft 424 kts 225°
2026-04-20 16:32 45.54939 0.70743 36942 ft 423 kts 225°
2026-04-20 16:33 45.50412 0.65375 36945 ft 423 kts 225°
2026-04-20 16:33 45.45906 0.60048 36935 ft 423 kts 224°
2026-04-20 16:34 45.41365 0.54686 36943 ft 423 kts 225°
2026-04-20 16:34 45.36830 0.49336 36926 ft 423 kts 224°
2026-04-20 16:35 45.32295 0.44004 36927 ft 423 kts 224°
2026-04-20 16:35 45.27751 0.38683 36920 ft 423 kts 224°
2026-04-20 16:36 45.23232 0.33407 36932 ft 423 kts 224°
2026-04-20 16:36 45.18656 0.28071 36916 ft 423 kts 224°
2026-04-20 16:37 45.14144 0.22806 36913 ft 423 kts 224°
2026-04-20 16:37 45.09595 0.17510 36916 ft 423 kts 224°
2026-04-20 16:38 45.05036 0.12230 36925 ft 423 kts 224°
2026-04-20 16:38 45.00479 0.06951 36926 ft 423 kts 224°
2026-04-20 16:39 44.95920 0.01689 36898 ft 424 kts 224°
2026-04-20 16:39 44.91351 -0.03570 36909 ft 423 kts 223°
2026-04-20 16:40 44.86785 -0.08824 36918 ft 423 kts 223°
2026-04-20 16:40 44.82220 -0.14070 36918 ft 423 kts 223°
2026-04-20 16:41 44.77647 -0.19304 36931 ft 423 kts 223°
2026-04-20 16:41 44.73071 -0.24528 36932 ft 423 kts 223°
2026-04-20 16:42 44.68493 -0.29739 36927 ft 423 kts 223°
2026-04-20 16:42 44.63924 -0.34879 36926 ft 424 kts 221°
2026-04-20 16:43 44.59103 -0.39681 36916 ft 426 kts 218°
2026-04-20 16:43 44.54153 -0.44269 36918 ft 426 kts 218°
2026-04-20 16:44 44.49228 -0.48890 36913 ft 426 kts 218°
2026-04-20 16:44 44.44334 -0.53578 36914 ft 426 kts 219°
2026-04-20 16:45 44.39455 -0.58277 36899 ft 426 kts 219°
2026-04-20 16:45 44.34562 -0.62955 36905 ft 426 kts 218°
2026-04-20 16:46 44.29662 -0.67618 36906 ft 426 kts 218°
2026-04-20 16:46 44.24815 -0.72302 36910 ft 425 kts 220°
2026-04-20 16:47 44.20064 -0.77194 36898 ft 424 kts 221°
2026-04-20 16:47 44.15332 -0.82118 36905 ft 424 kts 220°
2026-04-20 16:48 44.10577 -0.86984 36906 ft 424 kts 220°
2026-04-20 16:48 44.05797 -0.91824 36909 ft 424 kts 220°
2026-04-20 16:49 44.01017 -0.96650 36896 ft 424 kts 220°
2026-04-20 16:49 43.96238 -1.01471 36897 ft 424 kts 220°
2026-04-20 16:50 43.91464 -1.06295 36913 ft 424 kts 220°
2026-04-20 16:50 43.86689 -1.11112 36898 ft 425 kts 220°
2026-04-20 16:51 43.81903 -1.15921 36889 ft 425 kts 219°
2026-04-20 16:51 43.77114 -1.20719 36898 ft 425 kts 219°
2026-04-20 16:52 43.72356 -1.25483 36906 ft 424 kts 219°
2026-04-20 16:52 43.67571 -1.30257 36906 ft 424 kts 219°
2026-04-20 16:53 43.62781 -1.35019 36901 ft 424 kts 219°
2026-04-20 16:53 43.58000 -1.39786 36916 ft 424 kts 219°
2026-04-20 16:54 43.53213 -1.44540 36925 ft 424 kts 219°
2026-04-20 16:54 43.48470 -1.49287 36926 ft 422 kts 223°
2026-04-20 16:55 43.44611 -1.55239 36936 ft 415 kts 239°
2026-04-20 16:55 43.41426 -1.61864 36919 ft 415 kts 238°
2026-04-20 16:56 43.38216 -1.68461 36926 ft 415 kts 238°
2026-04-20 16:56 43.34998 -1.75049 36927 ft 415 kts 238°
2026-04-20 16:57 43.31794 -1.81636 36927 ft 415 kts 238°
2026-04-20 16:57 43.28464 -1.88116 36929 ft 416 kts 235°
2026-04-20 16:58 43.24935 -1.94417 36930 ft 416 kts 234°
2026-04-20 16:58 43.21420 -2.00642 36932 ft 416 kts 234°
2026-04-20 16:59 43.17909 -2.06937 36927 ft 415 kts 235°
2026-04-20 16:59 43.14412 -2.13246 36925 ft 415 kts 235°
2026-04-20 17:00 43.09170 -2.22678 36921 ft 414 kts 235°
2026-04-20 17:01 43.05703 -2.28908 36921 ft 414 kts 235°
2026-04-20 17:01 43.02206 -2.35167 36904 ft 414 kts 234°
2026-04-20 17:02 42.98702 -2.41413 36885 ft 415 kts 234°
2026-04-20 17:02 42.95186 -2.47675 36885 ft 415 kts 234°
2026-04-20 17:03 42.91665 -2.53926 36889 ft 416 kts 234°
2026-04-20 17:03 42.88137 -2.60185 36909 ft 416 kts 234°
2026-04-20 17:04 42.84609 -2.66432 36912 ft 416 kts 234°
2026-04-20 17:04 42.81096 -2.72632 36915 ft 416 kts 234°
2026-04-20 17:05 42.77552 -2.78871 36919 ft 417 kts 234°
2026-04-20 17:05 42.74003 -2.85117 36904 ft 417 kts 234°
2026-04-20 17:06 42.70479 -2.91364 36910 ft 416 kts 234°
2026-04-20 17:06 42.66999 -2.97661 36910 ft 416 kts 235°
2026-04-20 17:07 42.63512 -3.03951 36910 ft 416 kts 235°
2026-04-20 17:07 42.60013 -3.10221 36911 ft 416 kts 234°
2026-04-20 17:08 42.56527 -3.16434 36910 ft 417 kts 234°
2026-04-20 17:08 42.53014 -3.22696 36932 ft 416 kts 234°
2026-04-20 17:09 42.49504 -3.28946 36945 ft 416 kts 234°
2026-04-20 17:09 42.45991 -3.35182 36957 ft 416 kts 234°
2026-04-20 17:10 42.42478 -3.41408 36971 ft 416 kts 234°
2026-04-20 17:10 42.38964 -3.47618 36986 ft 416 kts 234°
2026-04-20 17:11 42.35448 -3.53826 36988 ft 416 kts 234°
2026-04-20 17:11 42.31931 -3.60024 36977 ft 415 kts 234°
2026-04-20 17:12 42.28432 -3.66170 36978 ft 415 kts 234°
2026-04-20 17:12 42.24910 -3.72344 36970 ft 415 kts 234°
2026-04-20 17:13 42.21389 -3.78514 36934 ft 415 kts 234°
2026-04-20 17:13 42.17866 -3.84671 36949 ft 415 kts 234°
2026-04-20 17:14 42.14339 -3.90817 36944 ft 415 kts 234°
2026-04-20 17:14 42.10827 -3.96923 36930 ft 414 kts 234°
2026-04-20 17:15 42.07301 -4.03055 36936 ft 414 kts 234°
2026-04-20 17:15 42.03758 -4.09181 36940 ft 414 kts 233°
2026-04-20 17:16 41.99626 -4.14606 36942 ft 417 kts 223°
2026-04-20 17:16 41.95254 -4.19727 36941 ft 417 kts 223°
2026-04-20 17:17 41.90878 -4.24841 36931 ft 417 kts 223°
2026-04-20 17:17 41.86502 -4.29954 36935 ft 417 kts 223°
2026-04-20 17:18 41.82120 -4.35063 36936 ft 417 kts 223°
2026-04-20 17:18 41.77732 -4.40173 36939 ft 417 kts 223°
2026-04-20 17:19 41.73373 -4.45229 36944 ft 418 kts 223°
2026-04-20 17:19 41.68983 -4.50319 36947 ft 418 kts 223°
2026-04-20 17:20 41.64587 -4.55414 36941 ft 418 kts 223°
2026-04-20 17:20 41.60175 -4.60502 36951 ft 418 kts 223°
2026-04-20 17:21 41.55771 -4.65583 36951 ft 418 kts 223°
2026-04-20 17:21 41.51392 -4.70628 36961 ft 418 kts 223°
2026-04-20 17:22 41.46973 -4.75700 36947 ft 419 kts 223°
2026-04-20 17:22 41.42558 -4.80768 36940 ft 419 kts 223°
2026-04-20 17:23 41.38129 -4.85838 36942 ft 420 kts 223°
2026-04-20 17:23 41.33697 -4.90893 36946 ft 420 kts 223°
2026-04-20 17:24 41.30003 -4.95098 36946 ft 420 kts 223°
2026-04-20 17:24 41.25565 -5.00143 36955 ft 420 kts 223°
2026-04-20 17:25 41.20408 -5.06002 36945 ft 419 kts 222°
2026-04-20 17:25 41.16686 -5.10223 36947 ft 419 kts 222°
2026-04-20 17:26 41.12250 -5.15243 36950 ft 419 kts 222°
2026-04-20 17:26 41.07841 -5.20227 36950 ft 419 kts 222°
2026-04-20 17:27 41.03401 -5.25236 36954 ft 419 kts 222°
2026-04-20 17:27 40.98961 -5.30233 36947 ft 419 kts 222°
2026-04-20 17:28 40.94518 -5.35215 36961 ft 419 kts 222°
2026-04-20 17:28 40.90076 -5.40193 36961 ft 418 kts 222°
2026-04-20 17:29 40.85628 -5.45165 36961 ft 418 kts 222°
2026-04-20 17:29 40.81180 -5.50129 36961 ft 418 kts 222°
2026-04-20 17:30 40.76743 -5.55082 36940 ft 418 kts 221°
2026-04-20 17:30 40.72333 -5.59996 36944 ft 417 kts 221°
2026-04-20 17:31 40.67894 -5.64933 36943 ft 417 kts 221°
2026-04-20 17:31 40.63451 -5.69857 36944 ft 417 kts 221°
2026-04-20 17:32 40.59007 -5.74766 36958 ft 417 kts 221°
2026-04-20 17:32 40.54564 -5.79666 36947 ft 416 kts 221°
2026-04-20 17:33 40.50126 -5.84560 36945 ft 416 kts 221°
2026-04-20 17:33 40.45721 -5.89417 36940 ft 416 kts 221°
2026-04-20 17:34 40.41288 -5.94293 36928 ft 416 kts 221°
2026-04-20 17:34 40.36848 -5.99162 36924 ft 416 kts 221°
2026-04-20 17:35 40.32408 -6.04025 36920 ft 416 kts 221°
2026-04-20 17:35 40.27969 -6.08887 36898 ft 416 kts 221°
2026-04-20 17:36 40.23521 -6.13745 36898 ft 416 kts 221°
2026-04-20 17:36 40.19079 -6.18589 36891 ft 416 kts 221°
2026-04-20 17:37 40.14632 -6.23420 36891 ft 416 kts 221°
2026-04-20 17:37 40.10181 -6.28251 36881 ft 416 kts 221°
2026-04-20 17:38 40.05758 -6.33046 36865 ft 416 kts 221°
2026-04-20 17:38 40.01300 -6.37884 36860 ft 416 kts 221°
2026-04-20 17:39 39.96840 -6.42705 36859 ft 417 kts 221°
2026-04-20 17:39 39.92370 -6.47524 36871 ft 417 kts 220°
2026-04-20 17:40 39.87889 -6.52333 36869 ft 417 kts 220°
2026-04-20 17:40 39.83418 -6.57139 36856 ft 417 kts 220°
2026-04-20 17:41 39.78942 -6.61936 36861 ft 417 kts 220°
2026-04-20 17:41 39.74463 -6.66730 36859 ft 417 kts 220°
2026-04-20 17:42 39.69977 -6.71521 36855 ft 417 kts 220°
2026-04-20 17:42 39.65524 -6.76267 36857 ft 417 kts 220°
2026-04-20 17:43 39.61032 -6.81048 36860 ft 417 kts 220°
2026-04-20 17:43 39.56545 -6.85826 36864 ft 417 kts 220°
2026-04-20 17:44 39.52060 -6.90595 36869 ft 417 kts 220°
2026-04-20 17:44 39.47571 -6.95344 36868 ft 416 kts 220°
2026-04-20 17:45 39.43085 -7.00089 36867 ft 416 kts 220°
2026-04-20 17:45 39.38627 -7.04793 36865 ft 416 kts 220°
2026-04-20 17:46 39.34137 -7.09519 36855 ft 416 kts 220°
2026-04-20 17:46 39.29648 -7.14248 36854 ft 416 kts 220°
2026-04-20 17:47 39.25157 -7.18965 36860 ft 416 kts 220°
2026-04-20 17:47 39.20204 -7.22810 36869 ft 418 kts 202°
2026-04-20 17:48 39.14607 -7.24914 36863 ft 420 kts 197°
2026-04-20 17:48 39.08972 -7.26891 36855 ft 419 kts 197°
2026-04-20 17:49 39.03339 -7.28870 36853 ft 419 kts 197°
2026-04-20 17:49 38.97702 -7.30831 36854 ft 419 kts 197°
2026-04-20 17:50 38.92065 -7.32792 36857 ft 419 kts 197°
2026-04-20 17:50 38.86422 -7.34762 36643 ft 421 kts 197°
2026-04-20 17:50 38.83599 -7.35744 36380 ft 421 kts 197°
2026-04-20 17:51 38.80773 -7.36723 36116 ft 421 kts 197°
2026-04-20 17:51 38.77945 -7.37702 35857 ft 421 kts 197°
2026-04-20 17:51 38.75109 -7.38683 35603 ft 422 kts 197°
2026-04-20 17:51 38.72307 -7.39653 35356 ft 423 kts 197°
2026-04-20 17:52 38.69458 -7.40640 34975 ft 423 kts 197°
2026-04-20 17:52 38.66616 -7.41626 34609 ft 424 kts 197°
2026-04-20 17:52 38.63771 -7.42614 34245 ft 424 kts 197°
2026-04-20 17:52 38.60922 -7.43604 33745 ft 423 kts 197°
2026-04-20 17:53 38.58078 -7.44591 32891 ft 424 kts 197°
2026-04-20 17:53 38.55217 -7.45581 31978 ft 427 kts 197°
2026-04-20 17:53 38.52339 -7.46571 31087 ft 430 kts 197°
2026-04-20 17:53 38.49441 -7.47565 30459 ft 433 kts 197°
2026-04-20 17:54 38.46516 -7.48569 29842 ft 436 kts 197°
2026-04-20 17:54 38.43578 -7.49577 29128 ft 439 kts 197°
2026-04-20 17:54 38.40619 -7.50594 28432 ft 440 kts 197°
2026-04-20 17:54 38.37666 -7.51605 27762 ft 437 kts 197°
2026-04-20 17:55 38.34734 -7.52609 27111 ft 434 kts 197°
2026-04-20 17:55 38.31827 -7.53603 26472 ft 431 kts 197°
2026-04-20 17:55 38.28931 -7.54594 25848 ft 428 kts 197°
2026-04-20 17:55 38.26104 -7.55564 25243 ft 425 kts 197°
2026-04-20 17:56 38.23257 -7.56544 24645 ft 423 kts 197°
2026-04-20 17:56 38.20426 -7.57515 24059 ft 420 kts 197°
2026-04-20 17:56 38.17616 -7.58473 23452 ft 416 kts 196°
2026-04-20 17:56 38.14831 -7.59421 22732 ft 412 kts 196°
2026-04-20 17:57 38.12075 -7.60362 22088 ft 408 kts 196°
2026-04-20 17:57 38.09395 -7.61465 21473 ft 402 kts 203°
2026-04-20 17:57 38.06900 -7.63023 20862 ft 397 kts 211°
2026-04-20 17:57 38.04570 -7.64888 20282 ft 393 kts 212°
2026-04-20 17:58 38.02272 -7.66738 19679 ft 389 kts 212°
2026-04-20 17:58 37.99992 -7.68563 19112 ft 386 kts 212°
2026-04-20 17:58 37.97732 -7.70372 18573 ft 383 kts 212°
2026-04-20 17:58 37.95480 -7.72174 18075 ft 382 kts 212°
2026-04-20 17:59 37.93242 -7.73963 17547 ft 379 kts 212°
2026-04-20 17:59 37.91019 -7.75736 17016 ft 376 kts 212°
2026-04-20 17:59 37.88812 -7.77493 16506 ft 373 kts 212°
2026-04-20 17:59 37.86619 -7.79240 15999 ft 371 kts 212°
2026-04-20 18:00 37.84470 -7.80953 15609 ft 369 kts 212°
2026-04-20 18:00 37.82302 -7.82677 15247 ft 368 kts 212°
2026-04-20 18:00 37.80140 -7.84397 14882 ft 367 kts 212°
2026-04-20 18:00 37.77983 -7.86114 14604 ft 366 kts 212°
2026-04-20 18:01 37.75832 -7.87825 14363 ft 365 kts 211°
2026-04-20 18:01 37.73683 -7.89531 14131 ft 364 kts 211°
2026-04-20 18:01 37.71536 -7.91228 13890 ft 364 kts 211°
2026-04-20 18:01 37.69387 -7.92930 13653 ft 363 kts 211°
2026-04-20 18:02 37.67253 -7.94620 13386 ft 361 kts 211°
2026-04-20 18:02 37.65124 -7.96301 13123 ft 360 kts 211°
2026-04-20 18:02 37.63004 -7.97976 12866 ft 359 kts 211°
2026-04-20 18:02 37.60897 -7.99646 12608 ft 357 kts 211°
2026-04-20 18:03 37.58823 -8.01292 12356 ft 356 kts 211°
2026-04-20 18:03 37.56730 -8.02944 12102 ft 354 kts 211°
2026-04-20 18:03 37.54641 -8.04590 11845 ft 353 kts 211°
2026-04-20 18:03 37.52566 -8.06225 11598 ft 352 kts 211°
2026-04-20 18:04 37.50491 -8.07860 11349 ft 351 kts 211°
2026-04-20 18:04 37.48432 -8.09474 10925 ft 346 kts 211°
2026-04-20 18:04 37.46389 -8.11068 10371 ft 344 kts 211°
2026-04-20 18:04 37.44398 -8.12615 10219 ft 329 kts 211°
2026-04-20 18:05 37.40656 -8.15502 9973 ft 303 kts 211°
2026-04-20 18:05 37.38887 -8.16856 9867 ft 291 kts 211°
2026-04-20 18:05 37.37215 -8.18136 9628 ft 281 kts 211°
2026-04-20 18:06 37.35553 -8.19400 9190 ft 276 kts 209°
2026-04-20 18:06 37.33786 -8.20272 8758 ft 272 kts 193°
2026-04-20 18:06 37.31913 -8.20488 8323 ft 270 kts 181°
2026-04-20 18:06 37.30059 -8.20438 7673 ft 262 kts 179°
2026-04-20 18:07 37.28262 -8.20255 7014 ft 259 kts 174°
2026-04-20 18:07 37.26473 -8.19946 6352 ft 260 kts 172°
2026-04-20 18:07 37.24693 -8.19569 5682 ft 260 kts 171°
2026-04-20 18:07 37.22924 -8.19153 5114 ft 256 kts 168°
2026-04-20 18:08 37.21214 -8.18540 4778 ft 253 kts 160°
2026-04-20 18:08 37.19626 -8.17661 4530 ft 247 kts 155°
2026-04-20 18:08 37.18120 -8.16673 4282 ft 241 kts 153°
2026-04-20 18:08 37.16667 -8.15712 4132 ft 232 kts 154°
2026-04-20 18:09 37.15253 -8.14788 3919 ft 226 kts 154°
2026-04-20 18:09 37.13878 -8.13884 3724 ft 221 kts 154°
2026-04-20 18:09 37.12537 -8.13026 3498 ft 217 kts 156°
2026-04-20 18:09 37.11187 -8.12230 3356 ft 212 kts 156°
2026-04-20 18:10 37.09869 -8.11457 3180 ft 206 kts 156°
2026-04-20 18:10 37.08578 -8.10741 3012 ft 196 kts 160°
2026-04-20 18:10 37.07362 -8.10192 2845 ft 178 kts 161°
2026-04-20 18:10 37.06225 -8.09644 2533 ft 172 kts 158°
2026-04-20 18:11 37.05156 -8.09078 2240 ft 163 kts 153°
2026-04-20 18:11 37.04260 -8.08280 1937 ft 155 kts 134°
2026-04-20 18:11 37.03543 -8.07326 1683 ft 143 kts 129°
2026-04-20 18:11 37.03007 -8.06339 1446 ft 134 kts 114°
2026-04-20 18:12 37.02702 -8.05242 1187 ft 132 kts 103°
2026-04-20 18:12 37.02517 -8.04106 995 ft 132 kts 102°
2026-04-20 18:12 37.02344 -8.02987 794 ft 130 kts 99°
2026-04-20 18:12 37.02196 -8.01857 593 ft 132 kts 100°
2026-04-20 18:13 37.02034 -8.00711 428 ft 138 kts 98°
2026-04-20 18:13 37.01866 -7.99545 244 ft 133 kts 99°
2026-04-20 18:13 37.01705 -7.98414 52 ft 131 kts 99°
2026-04-20 18:13 37.01560 -7.97387 19 ft 103 kts 100°
2026-04-20 18:14 37.01461 -7.96685 22 ft 66 kts 100°
2026-04-20 18:14 37.01446 -7.96321 22 ft 26 kts 87°
2026-04-20 18:14 37.01481 -7.96155 20 ft 14 kts 68°
2026-04-20 18:14 37.01543 -7.96117 20 ft 10 kts 332°
2026-04-20 18:15 37.01565 -7.96165 20 ft 9 kts 290°
2026-04-20 18:15 37.01578 -7.96241 20 ft 8 kts 280°
2026-04-20 18:15 37.01588 -7.96311 23 ft 9 kts 280°
2026-04-20 18:15 37.01603 -7.96418 21 ft 16 kts 280°
2026-04-20 18:16 37.01640 -7.96534 22 ft 14 kts 332°
2026-04-20 18:16 37.01732 -7.96522 23 ft 14 kts 11°
2026-04-20 18:16 37.01794 -7.96581 20 ft 13 kts 281°
2026-04-20 18:16 37.01810 -7.96695 20 ft 13 kts 279°
2026-04-20 18:17 37.01825 -7.96799 20 ft 12 kts 280°
2026-04-20 18:17 37.01838 -7.96893 20 ft 10 kts 279°
2026-04-20 18:17 37.01852 -7.96975 20 ft 9 kts 299°
2026-04-20 18:17 37.01903 -7.96981 20 ft 7 kts 11°
2026-04-20 18:18 37.01933 -7.96974 23 ft 2 kts 10°
2026-04-20 18:18 37.01934 -7.96974 23 ft 0 kts 10°